Terminal Aerodrome Forecast
Issued by NWS Upton, NY

Home | Current Version | Previous Version | Text Only | Print | Product List | Glossary On
Versions: 1 2 3 4 5 6 7 8 9 10 11 12 13 14 15 16 17 18 19 20 21 22 23 24 25 26 27 28 29 30 31 32 33 34 35 36 37 38
000
FTUS41 KOKX 241100
TAFLGA
TAF
KLGA 241120Z 2412/2512 31013KT P6SM SCT025 BKN070
     FM241400 32016G24KT P6SM SCT025 BKN040
     FM242200 32013KT P6SM SCT040
     FM250400 31009KT P6SM SCT250=

USA.gov is the U.S. government's official web portal to all federal, state and local government web resources and services.